CDT,Max TemperatureF,Mean TemperatureF,Min TemperatureF,Max Dew PointF,MeanDew PointF,Min DewpointF,Max Humidity, Mean Humidity, Min Humidity, Max Sea Level PressureIn, Mean Sea Level PressureIn, Min Sea Level PressureIn, Max VisibilityMiles, Mean VisibilityMiles, Min VisibilityMiles, Max Wind SpeedMPH, Mean Wind SpeedMPH, Max Gust SpeedMPH,PrecipitationIn, CloudCover, Events, WindDirDegrees
2012-9-1,77,74,70,65,59,54,78,64,49,30.08,30.03,29.97,10,10,10,22,13,26,T,8,Rain,67
2012-9-2,89,80,70,69,66,61,84,69,53,29.96,29.93,29.88,10,10,8,18,11,24,0.00,6,,64
2012-9-3,96,82,67,69,65,60,93,65,36,29.95,29.91,29.87,10,10,7,13,3,16,T,3,,16
2012-9-4,96,80,63,69,64,57,87,61,34,29.97,29.88,29.80,10,9,1,40,6,55,0.41,5,Rain-Thunderstorm,350
2012-9-5,90,77,63,67,61,58,90,65,39,29.98,29.83,29.76,10,10,7,26,8,33,0.19,5,Rain-Thunderstorm,271
2012-9-6,85,74,62,64,56,47,87,58,28,29.96,29.92,29.86,10,10,10,13,3,17,0.00,1,,306
2012-9-7,76,67,57,63,58,53,93,77,60,29.91,29.87,29.81,10,9,4,22,8,25,0.15,7,Rain,329
2012-9-8,74,63,51,55,48,45,93,64,35,29.96,29.90,29.82,10,10,4,22,11,28,0.12,2,Rain,312
2012-9-9,73,63,52,55,49,42,93,64,35,30.19,30.07,29.92,10,10,10,21,10,29,0.00,3,,1
2012-9-10,78,63,48,52,48,44,93,62,30,30.24,30.17,30.09,10,10,8,17,6,22,0.00,1,,185
2012-9-11,85,69,52,55,52,48,89,61,32,30.14,30.09,30.03,10,10,10,23,12,29,0.00,2,,186
2012-9-12,89,74,59,58,55,47,80,55,29,30.15,30.10,30.06,10,10,10,17,9,24,0.00,4,,190
2012-9-13,66,58,49,52,47,40,96,68,40,30.37,30.31,30.17,10,7,1,24,9,28,0.27,7,Fog-Rain,17
2012-9-14,75,60,44,52,45,42,100,66,31,30.38,30.34,30.29,10,4,0,16,4,21,0.00,3,Fog,235
2012-9-15,81,64,47,51,45,41,86,56,25,30.35,30.25,30.15,10,10,10,10,3,14,0.00,1,,224
2012-9-16,77,62,47,51,46,41,86,58,29,30.15,30.07,29.98,10,10,10,18,5,23,0.00,2,,197
2012-9-17,80,65,50,61,54,46,93,70,47,29.98,29.87,29.76,10,8,0,22,8,25,0.36,6,Rain-Thunderstorm,294
2012-9-18,63,52,41,46,37,29,93,62,30,30.06,29.96,29.86,10,10,0,18,9,26,0.00,3,,328
2012-9-19,75,57,38,48,40,34,85,58,31,30.07,29.93,29.78,10,10,10,32,13,40,T,4,Rain-Thunderstorm,199
2012-9-20,71,59,46,45,38,30,86,55,23,29.96,29.91,29.85,10,10,10,23,8,31,0.00,5,,276
2012-9-21,55,50,44,50,45,37,100,83,66,29.97,29.90,29.83,10,10,7,15,4,20,0.24,7,Fog-Rain,267
2012-9-22,60,51,41,48,40,33,100,74,47,30.22,30.02,29.83,10,10,10,23,10,31,0.00,5,,292
2012-9-23,61,48,35,40,33,27,92,60,27,30.31,30.26,30.22,10,10,10,16,4,22,0.00,1,Fog,308
2012-9-24,73,52,31,39,34,30,92,59,25,30.25,30.08,29.91,10,10,10,21,8,28,0.00,1,,206
2012-9-25,82,63,43,54,47,39,86,61,35,29.92,29.86,29.80,10,10,10,13,3,15,0.00,2,,196
2012-9-26,73,61,49,52,47,38,100,68,35,30.20,30.04,29.90,10,10,9,15,8,20,0.00,3,,36
2012-9-27,67,54,40,46,42,38,92,70,48,30.28,30.23,30.19,10,10,10,16,5,20,0.00,3,,26
2012-9-28,71,56,40,44,41,38,100,66,31,30.25,30.19,30.14,10,10,7,7,4,9,0.00,1,,2
2012-9-29,83,62,41,45,41,37,93,57,20,30.15,30.07,29.95,10,10,10,20,6,24,0.00,1,,335
2012-9-30,71,58,44,50,43,40,93,63,33,30.02,29.99,29.94,10,10,10,15,6,28,0.00,3,,73